Location: Dos Palmas
(32.4468°N, 116.8732°W)
Time: 16:04:38
(UTC+00:00)

Meteor 2-3 Rocket - Pass Details

Date: 20 June 2021
Orbit: 842 x 885 km, 81.2° (Epoch: 26 July)

Event Time Altitude Azimuth Distance (km) Brightness Sun altitude
Exits shadow 10:02:55 72° 214° (SW) 891 3.5 -25.6°
Maximum altitude 10:03:29 81° 278° (W) 859 3.6 -25.6°
Drops below altitude 10° 10:09:05 10° 6° (N) 2,467 6.9 -24.9°
Sets 10:11:30 0° 7° (N) 3,403 7.8 -24.6°
